| time (UTC) | temp C | wind direction | speed KPH | gust KPH | rain 1hr cm | rain 24hr cm | rain mn cm | humidity % | barometer mb |
| 20260507183043 | 12 | 360 | 0.0 | 4.8 | 0.00 | 0.00 | 0.00 | 100 | 1015.2 |
| 20260507181538 | 12 | 131 | 0.0 | 4.8 | 0.00 | 0.00 | 0.00 | 100 | 1015.2 |
| 20260507180042 | 12 | 108 | 3.2 | 8.0 | 0.00 | 0.00 | 0.00 | 100 | 1015.0 |
| 20260507174539 | 12 | 120 | 1.6 | 6.4 | 0.00 | 0.00 | 0.00 | 100 | 1015.0 |
| 20260507173045 | 13 | 142 | 1.6 | 4.8 | 0.00 | 0.00 | 0.00 | 100 | 1015.0 |
| 20260507171546 | 13 | 155 | 0.0 | 4.8 | 0.00 | 0.00 | 0.00 | 100 | 1015.0 |
| 20260507170033 | 13 | 360 | 0.0 | 6.4 | 0.00 | 0.00 | 0.00 | 100 | 1015.1 |
| 20260507164541 | 13 | 86 | 0.0 | 9.7 | 0.00 | 0.00 | 0.00 | 100 | 1015.2 |
| 20260507163032 | 13 | 360 | 0.0 | 4.8 | 0.00 | 0.00 | 0.00 | 100 | 1015.2 |
| 20260507161540 | 13 | 115 | 0.0 | 4.8 | 0.00 | 0.00 | 0.00 | 100 | 1015.3 |
| 20260507160039 | 13 | 360 | 0.0 | 6.4 | 0.00 | 0.00 | 0.00 | 100 | 1015.3 |
| 20260507154534 | 13 | 99 | 0.0 | 4.8 | 0.00 | 0.00 | 0.00 | 100 | 1015.3 |
| 20260507153027 | 13 | 360 | 1.6 | 8.0 | 0.00 | 0.00 | 0.00 | 100 | 1015.4 |
| 20260507151537 | 13 | 360 | 3.2 | 8.0 | 0.00 | 0.00 | 0.00 | 100 | 1015.5 |
| 20260507150024 | 13 | 360 | 0.0 | 6.4 | 0.00 | 0.00 | 0.00 | 100 | 1015.6 |
| 20260507144522 | 13 | 360 | 0.0 | 6.4 | 0.00 | 0.00 | 0.00 | 100 | 1015.9 |
| 20260507143020 | 13 | 84 | 1.6 | 8.0 | 0.00 | 0.00 | 0.00 | 100 | 1016.1 |
| 20260507141520 | 13 | 360 | 1.6 | 9.7 | 0.00 | 0.00 | 0.00 | 100 | 1016.1 |
| 20260507140020 | 13 | 115 | 0.0 | 6.4 | 0.00 | 0.00 | 0.00 | 100 | 1016.2 |
| 20260507134528 | 13 | 50 | 1.6 | 8.0 | 0.00 | 0.00 | 0.00 | 100 | 1016.3 |
| 20260507133015 | 13 | 97 | 3.2 | 8.0 | 0.00 | 0.00 | 0.00 | 100 | 1016.4 |
| 20260507131518 | 12 | 82 | 0.0 | 9.7 | 0.00 | 0.00 | 0.00 | 100 | 1016.4 |
| 20260507130009 | 12 | 360 | 1.6 | 11.3 | 0.00 | 0.00 | 0.00 | 100 | 1016.5 |
| 20260507124507 | 12 | 360 | 3.2 | 8.0 | 0.00 | 0.00 | 0.00 | 100 | 1016.5 |
| 20260507123016 | 12 | 360 | 1.6 | 8.0 | 0.00 | 0.00 | 0.00 | 100 | 1016.6 |
| 20260507121502 | 11 | 360 | 1.6 | 6.4 | 0.00 | 0.00 | 0.00 | 100 | 1016.6 |
| 20260507120058 | 10 | 360 | 1.6 | 8.0 | 0.00 | 0.00 | 0.00 | 100 | 1016.7 |
| 20260507114559 | 10 | 134 | 1.6 | 6.4 | 0.00 | 0.00 | 0.00 | 100 | 1016.7 |
| 20260507113052 | 9 | 108 | 1.6 | 8.0 | 0.00 | 0.00 | 0.00 | 100 | 1016.9 |
| 20260507111551 | 9 | 360 | 0.0 | 4.8 | 0.00 | 0.00 | 0.00 | 100 | 1016.9 |
| 20260507104548 | 8 | 119 | 1.6 | 4.8 | 0.00 | 0.00 | 0.00 | 100 | 1017.1 |
| 20260507103053 | 8 | 110 | 0.0 | 4.8 | 0.00 | 0.00 | 0.00 | 100 | 1017.1 |
| 20260507101548 | 8 | 360 | 0.0 | 1.6 | 0.00 | 0.00 | 0.00 | 100 | 1017.1 |
| 20260507100043 | 8 | 79 | 0.0 | 3.2 | 0.00 | 0.00 | 0.00 | 100 | 1017.1 |
| 20260507094542 | 8 | 97 | 0.0 | 3.2 | 0.00 | 0.00 | 0.00 | 100 | 1017.1 |
| 20260507093042 | 8 | 360 | 0.0 | 4.8 | 0.00 | 0.00 | 0.00 | 100 | 1017.1 |
| 20260507091550 | 8 | 141 | 0.0 | 1.6 | 0.00 | 0.00 | 0.00 | 100 | 1017.0 |
| 20260507090042 | 7 | 360 | 0.0 | 3.2 | 0.00 | 0.00 | 0.00 | 100 | 1017.0 |
| 20260507084540 | 7 | 360 | 0.0 | 3.2 | 0.00 | 0.00 | 0.00 | 100 | 1017.0 |
| 20260507083038 | 7 | 124 | 0.0 | 4.8 | 0.00 | 0.00 | 0.00 | 100 | 1017.1 |
| 20260507081532 | 6 | 144 | 0.0 | 3.2 | 0.00 | 0.00 | 0.00 | 100 | 1017.0 |
| 20260507080030 | 6 | 164 | 0.0 | 3.2 | 0.00 | 0.00 | 0.00 | 100 | 1017.0 |
| 20260507074540 | 6 | 189 | 0.0 | 4.8 | 0.00 | 0.00 | 0.00 | 100 | 1017.0 |
| 20260507073027 | 6 | 129 | 0.0 | 3.2 | 0.00 | 0.00 | 0.00 | 100 | 1016.8 |
| 20260507071525 | 5 | 62 | 0.0 | 1.6 | 0.00 | 0.00 | 0.00 | 100 | 1016.8 |
| 20260507070023 | 5 | 360 | 0.0 | 3.2 | 0.00 | 0.00 | 0.00 | 100 | 1016.8 |
| 20260507064522 | 5 | 96 | 0.0 | 1.6 | 0.00 | 0.00 | 0.00 | 100 | 1016.7 |
| 20260507063022 | 5 | 76 | 0.0 | 1.6 | 0.00 | 0.00 | 0.00 | 100 | 1016.7 |
| 20260507061519 | 5 | 58 | 0.0 | 1.6 | 0.00 | 0.00 | 0.00 | 100 | 1016.7 |
| 20260507060016 | 4 | 360 | 0.0 | 1.6 | 0.00 | 0.00 | 0.00 | 100 | 1016.7 |
| 20260507054514 | 4 | 118 | 0.0 | 1.6 | 0.00 | 0.00 | 0.00 | 100 | 1016.5 |
| 20260507053012 | 3 | 360 | 0.0 | 1.6 | 0.00 | 0.00 | 0.00 | 100 | 1016.5 |
| 20260507051510 | 3 | 69 | 0.0 | 1.6 | 0.00 | 0.00 | 0.00 | 100 | 1016.5 |
| 20260507050009 | 3 | 287 | 0.0 | 1.6 | 0.00 | 0.00 | 0.00 | 100 | 1016.4 |
| 20260507044509 | 3 | 4 | 0.0 | 1.6 | 0.00 | 0.00 | 0.00 | 100 | 1016.5 |
| 20260507043008 | 3 | 360 | 0.0 | 1.6 | 0.00 | 0.00 | 0.00 | 100 | 1016.5 |
| 20260507041510 | 3 | 229 | 0.0 | 0.0 | 0.00 | 0.00 | 0.00 | 100 | 1016.4 |
| 20260507040006 | 3 | 229 | 0.0 | 0.0 | 0.00 | 0.00 | 0.00 | 100 | 1016.4 |
| 20260507034505 | 3 | 229 | 0.0 | 0.0 | 0.00 | 0.00 | 0.00 | 100 | 1016.5 |
| 20260507033004 | 3 | 229 | 0.0 | 0.0 | 0.00 | 0.00 | 0.00 | 100 | 1016.4 |
| 20260507031504 | 3 | 229 | 0.0 | 0.0 | 0.00 | 0.00 | 0.00 | 100 | 1016.5 |
| 20260507030002 | 3 | 229 | 0.0 | 0.0 | 0.00 | 0.00 | 0.00 | 100 | 1016.6 |
| 20260507024609 | 3 | 229 | 0.0 | 0.0 | 0.00 | 0.00 | 0.00 | 100 | 1016.7 |
| 20260507023059 | 3 | 229 | 0.0 | 0.0 | 0.00 | 0.00 | 0.00 | 100 | 1016.6 |
| 20260507021601 | 3 | 229 | 0.0 | 0.0 | 0.00 | 0.00 | 0.00 | 100 | 1016.6 |
| 20260507020058 | 3 | 229 | 0.0 | 0.0 | 0.00 | 0.00 | 0.00 | 100 | 1016.6 |
| 20260507014559 | 3 | 229 | 0.0 | 0.0 | 0.00 | 0.00 | 0.00 | 100 | 1016.5 |
| 20260507013056 | 2 | 229 | 0.0 | 0.0 | 0.00 | 0.00 | 0.00 | 100 | 1016.5 |
| 20260507011554 | 2 | 229 | 0.0 | 0.0 | 0.00 | 0.00 | 0.00 | 100 | 1016.6 |
| 20260507010109 | 2 | 229 | 0.0 | 0.0 | 0.00 | 0.00 | 0.00 | 100 | 1016.7 |
| 20260507004549 | 2 | 229 | 0.0 | 0.0 | 0.00 | 0.00 | 0.00 | 100 | 1016.8 |
| 20260507003049 | 2 | 229 | 0.0 | 0.0 | 0.00 | 0.00 | 0.00 | 100 | 1016.8 |
| 20260507001555 | 2 | 229 | 0.0 | 0.0 | 0.00 | 0.00 | 0.00 | 100 | 1016.9 |
| 20260507000048 | 1 | 229 | 0.0 | 0.0 | 0.00 | 0.00 | 0.00 | 100 | 1017.1 |
| 20260506234546 | 2 | 229 | 0.0 | 0.0 | 0.00 | 0.00 | 0.00 | 100 | 1017.0 |
| 20260506233057 | 2 | 229 | 0.0 | 0.0 | 0.00 | 0.00 | 0.00 | 100 | 1017.0 |
| 20260506231542 | 2 | 229 | 0.0 | 0.0 | 0.00 | 0.00 | 0.00 | 100 | 1017.1 |
| 20260506230045 | 2 | 229 | 0.0 | 0.0 | 0.00 | 0.00 | 0.00 | 100 | 1017.1 |
| 20260506224539 | 2 | 229 | 0.0 | 0.0 | 0.00 | 0.00 | 0.00 | 100 | 1017.2 |
| 20260506223043 | 2 | 229 | 0.0 | 0.0 | 0.00 | 0.00 | 0.00 | 100 | 1017.1 |
| 20260506221545 | 2 | 229 | 0.0 | 0.0 | 0.00 | 0.00 | 0.00 | 100 | 1017.0 |
| 20260506220046 | 2 | 229 | 0.0 | 0.0 | 0.00 | 0.00 | 0.00 | 100 | 1016.9 |
| 20260506214537 | 3 | 229 | 0.0 | 0.0 | 0.00 | 0.00 | 0.00 | 100 | 1016.8 |
| 20260506213036 | 3 | 229 | 0.0 | 0.0 | 0.00 | 0.00 | 0.00 | 100 | 1016.8 |
| 20260506211545 | 3 | 229 | 0.0 | 0.0 | 0.00 | 0.00 | 0.00 | 100 | 1016.8 |
| 20260506210036 | 3 | 229 | 0.0 | 0.0 | 0.00 | 0.00 | 0.00 | 100 | 1016.8 |
| 20260506204535 | 4 | 229 | 0.0 | 0.0 | 0.00 | 0.00 | 0.00 | 100 | 1016.7 |
| 20260506203034 | 5 | 229 | 0.0 | 0.0 | 0.00 | 0.00 | 0.00 | 100 | 1016.7 |
| 20260506201534 | 5 | 229 | 0.0 | 0.0 | 0.00 | 0.00 | 0.00 | 100 | 1016.6 |
| 20260506200034 | 6 | 229 | 0.0 | 0.0 | 0.00 | 0.00 | 0.00 | 100 | 1016.4 |
| 20260506194537 | 6 | 229 | 0.0 | 0.0 | 0.00 | 0.00 | 0.00 | 100 | 1016.3 |
| 20260506193034 | 7 | 229 | 0.0 | 0.0 | 0.00 | 0.00 | 0.00 | 100 | 1016.2 |
| 20260506191533 | 7 | 229 | 0.0 | 0.0 | 0.00 | 0.00 | 0.00 | 100 | 1016.1 |
| 20260506190030 | 8 | 222 | 0.0 | 0.0 | 0.00 | 0.00 | 0.00 | 100 | 1016.0 |
| 20260506184529 | 9 | 360 | 0.0 | 6.4 | 0.00 | 0.00 | 0.00 | 100 | 1015.9 |